Flag Weather past 2 weeks in Camrose, Alberta, Canada

Now
0 °F

Light snow. Mostly cloudy.


Feels Like: -20 °F
Forecast: -10 / 2 °F
Wind: 15 mph from Northeast

Location: Edmonton International

Current Time: Nov 27, 2014 at 11:03:59 PM

Latest Report: Nov 27, 2014 at 10:00 PM


Visibility: 5 mi

Pressure: 30.05 "Hg

Humidity: 78%

Dew point: -6 °F

Location of CamroseLocation

Historic Weather in Camrose — Graph

°F

Camrose temperature yesterday

Maximum temperature yesterday: 18 °F (at 3:00 PM)
Minimum temperature yesterday: 10 °F (at 10:00 AM)
Average temperature yesterday: 15 °F

Past Weeks' High & Low Weather Summary

 TemperatureHumidityPressure
High43 °F (Nov 21, 5:00 AM)100% (Nov 21, 8:00 PM)30.75 "Hg (Nov 21, 8:00 PM)
Low-15 °F (Nov 13, 7:00 AM)52% (Nov 18, 1:00 AM)29.16 "Hg (Nov 22, 7:00 AM)
Average18 °F81%30.10 "Hg
* Reported Nov 12 10:00 PM — Nov 27 10:00 PM, Camrose, Weather by CustomWeather, © 2014

Note: Actual official high and low records may vary slightly from our data, if they occured in-between our weather recording intervals... More about our weather records

Advertising

Camrose weather history for previous 24 hours

 ConditionsComfort  
Time TempWeatherWind HumidityBarometerVisibility
10:00 PM
Nov 27
0 °FLight snow. Mostly cloudy.15 mph78%30.05 "Hg5 mi
9:03 PM1 °FLight snow. Overcast.14 mph71%30.07 "Hg3 mi
8:55 PM1 °FLight snow. Ice fog.10 mph78%30.08 "Hg1 mi
8:00 PM1 °FLight snow. Ice fog.13 mph78%30.09 "Hg1 mi
7:00 PM1 °FLight snow. Ice fog.9 mph85%30.11 "Hg1 mi
6:00 PM3 °FLight snow. Ice fog.15 mph78%30.12 "Hg1 mi
5:00 PM3 °FLight snow. Overcast.13 mph78%30.14 "Hg1 mi
4:00 PM3 °FLight snow. Ice fog.16 mph85%30.14 "Hg1 mi
3:00 PM7 °FLight snow. Overcast.13 mph78%30.13 "Hg1 mi
2:00 PM9 °FLight snow. Ice fog.14 mph78%30.11 "Hg1 mi
1:00 PM9 °FLight snow. Ice fog.15 mph85%30.13 "Hg1 mi
12:00 PM10 °FLight snow. Ice fog.15 mph85%30.12 "Hg1 mi
11:00 AM10 °FLight snow. Ice fog.17 mph85%30.14 "Hg1 mi
10:00 AM12 °FLight snow. Ice fog.16 mph79%30.13 "Hg1 mi
9:00 AM12 °FLight snow. Ice fog.17 mph85%30.11 "Hg1 mi
8:48 AM12 °FLight snow. Ice fog.17 mph85%30.10 "Hg1 mi
8:00 AM12 °FLight snow. Overcast.18 mph85%30.10 "Hg1 mi
7:00 AM14 °FLight snow. Mostly cloudy.16 mph85%30.11 "Hg1 mi
6:00 AM14 °FLight snow. Mostly cloudy.16 mph85%30.10 "Hg1 mi
5:52 AM14 °FLight snow. Mostly cloudy.18 mph85%30.10 "Hg1 mi
5:00 AM16 °FLight snow. Overcast.14 mph79%30.11 "Hg3 mi
4:00 AM16 °FLight snow. Mostly cloudy.13 mph86%30.13 "Hg3 mi
3:00 AM16 °FLight snow. Mostly cloudy.12 mph86%30.14 "Hg3 mi
2:00 AM18 °FLight snow. Mostly cloudy.14 mph86%30.16 "Hg2 mi
1:00 AM18 °FLight snow. Mostly cloudy.13 mph86%30.19 "Hg4 mi
12:00 AM18 °FLight snow. Overcast.9 mph93%30.19 "Hg6 mi
11:00 PM
Nov 26
18 °FOvercast.7 mph93%30.20 "Hg10 mi
Weather by CustomWeather, © 2014

See weather overviewHow to use our weather pages